Weather History for Elmira, NY

Change the Weather History Date:

Saturday, October 20, 2012

  Actual Average Record
Temperature  
Mean Temperature 46 °F -  
Max Temperature 55 °F 55 °F 83 °F (1947)
Min Temperature 37 °F 33 °F 15 °F (1974)
Degree Days  
Heating Degree Days 19    
Moisture  
Dew Point 42 °F    
Average Humidity 86    
Maximum Humidity 100    
Minimum Humidity 55    
Precipitation  
Precipitation 0.06 in - - ()
Sea Level Pressure  
Sea Level Pressure 29.70 in    
Wind  
Wind Speed 2 mph (WSW)    
Max Wind Speed 15 mph    
Max Gust Speed -    
Visibility 5 miles    
Events Fog , Rain    
Averages and records for this station are not official NWS values.
T = Trace of Precipitation, MM = Missing Value Source: NWS Daily Summary

Daily Weather History Graph

Daily Weather History Graph

Search for Another Location

Airport:

Trip Planner

Search our weather history database for the weather conditions in past years. The results will help you decide how hot, cold, wet, or windy it might be!

Date:

Astronomy

Oct. 20, 2012 Rise Set
Actual Time 7:26 AM EDT 6:17 PM EDT
Civil Twilight 6:58 AM EDT 6:45 PM EDT
Nautical Twilight 6:25 AM EDT 7:18 PM EDT
Astronomical Twilight 5:53 AM EDT 7:50 PM EDT
Moon 1:03 PM EDT (10/20) 10:57 PM EDT (10/20)
Length of Visible Light 11h 47m
Length of Day
10h 50m
Waxing Crescent, 34% of the Moon is Illuminated
Oct 20
Waxing Crescent
Oct 21
First Quarter
Oct 29
Full
Nov 6
Last Quarter
Nov 13
New

Hourly Weather History & Observations

Time (EDT) Temp. Windchill Dew Point Humidity Pressure Visibility Wind Dir Wind Speed Gust Speed Precip Events Conditions
12:01 AM 46.4 °F - 44.6 °F 93% 29.64 in 0.2 mi Calm Calm - N/A Fog Fog
12:34 AM 46.4 °F - 44.6 °F 93% 29.64 in 0.2 mi Calm Calm - N/A Fog Fog
12:53 AM 46.9 °F - 45.0 °F 93% 29.64 in 0.2 mi Calm Calm - N/A Fog Fog
1:17 AM 48.2 °F - 46.4 °F 93% 29.65 in 0.2 mi Calm Calm - N/A Fog Fog
1:32 AM 50.0 °F - 48.2 °F 94% 29.66 in 0.5 mi Variable 4.6 mph - 0.05 in Fog , Rain Heavy Rain
1:40 AM 48.2 °F - 46.4 °F 93% 29.66 in 2.0 mi Calm Calm - 0.05 in Rain Light Rain
1:44 AM 48.2 °F - 48.2 °F 100% 29.66 in 3.0 mi SSW 4.6 mph - 0.05 in Rain Light Rain
1:53 AM 50.0 °F - 48.9 °F 96% 29.65 in 5.0 mi Calm Calm - 0.06 in Rain Rain
2:38 AM 48.2 °F - 46.4 °F 93% 29.64 in 1.8 mi Calm Calm - 0.00 in   Scattered Clouds
2:42 AM 48.2 °F - 46.4 °F 93% 29.65 in 0.8 mi Calm Calm - 0.00 in   Scattered Clouds
2:47 AM 46.4 °F - 46.4 °F 100% 29.65 in 0.2 mi Calm Calm - 0.00 in Fog Fog
2:53 AM 46.9 °F - 46.0 °F 97% 29.65 in 0.2 mi Calm Calm - 0.00 in Fog Fog
3:53 AM 46.0 °F 44.8 °F 45.0 °F 96% 29.66 in 0.2 mi WSW 3.5 mph - N/A Fog Fog
4:28 AM 44.6 °F - 44.6 °F 100% 29.66 in 0.5 mi Calm Calm - N/A Fog Fog
4:38 AM 42.8 °F 41.1 °F 39.2 °F 87% 29.66 in 0.2 mi North 3.5 mph - N/A Fog Fog
4:53 AM 42.1 °F - 41.0 °F 96% 29.67 in 0.2 mi Calm Calm - N/A Fog Fog
5:05 AM 41.0 °F - 39.2 °F 93% 29.67 in 0.5 mi Calm Calm - N/A Fog Fog
5:14 AM 42.8 °F - 39.2 °F 87% 29.67 in 0.2 mi Calm Calm - N/A Fog Fog
5:53 AM 37.9 °F - 37.0 °F 97% 29.68 in 0.2 mi Calm Calm - N/A Fog Fog
6:07 AM 39.2 °F - 37.4 °F 93% 29.68 in 0.5 mi Calm Calm - N/A Fog Fog
6:20 AM 39.2 °F - 37.4 °F 93% 29.68 in 0.2 mi Calm Calm - N/A Fog Fog
6:46 AM 39.2 °F - 37.4 °F 93% 29.70 in 4.0 mi Calm Calm - N/A   Overcast
6:53 AM 41.0 °F - 39.0 °F 93% 29.71 in 4.0 mi Calm Calm - N/A   Overcast
6:56 AM 39.2 °F - 39.2 °F 100% 29.70 in 10.0 mi Calm Calm - N/A   Partly Cloudy
7:53 AM 37.9 °F - 37.0 °F 97% 29.72 in 10.0 mi Calm Calm - N/A   Partly Cloudy
8:53 AM 43.0 °F - 42.1 °F 97% 29.73 in 10.0 mi Calm Calm - N/A   Partly Cloudy
9:53 AM 48.9 °F - 44.1 °F 83% 29.72 in 10.0 mi West 4.6 mph - N/A   Overcast
10:53 AM 51.1 °F - 43.0 °F 74% 29.74 in 10.0 mi WSW 4.6 mph - N/A   Overcast
11:53 AM 54.0 °F - 42.1 °F 64% 29.73 in 10.0 mi WSW 12.7 mph - N/A   Partly Cloudy
12:53 PM 54.0 °F - 41.0 °F 62% 29.73 in 10.0 mi SW 15.0 mph - N/A   Overcast
1:53 PM 55.9 °F - 41.0 °F 57% 29.70 in 10.0 mi SSW 11.5 mph - N/A   Scattered Clouds
3:53 PM 54.0 °F - 39.0 °F 57% 29.71 in 10.0 mi WSW 10.4 mph - 0.00 in Rain Light Rain
5:53 PM 53.1 °F - 37.0 °F 55% 29.75 in 10.0 mi WSW 11.5 mph - N/A   Clear
6:53 PM 50.0 °F - 37.9 °F 63% 29.76 in 10.0 mi WSW 6.9 mph - N/A   Clear
7:53 PM 48.0 °F - 37.9 °F 68% 29.79 in 10.0 mi WSW 5.8 mph - N/A   Clear
8:53 PM 48.0 °F - 39.0 °F 71% 29.81 in 10.0 mi WSW 6.9 mph - N/A   Mostly Cloudy
9:53 PM 46.9 °F - 39.0 °F 74% 29.80 in 10.0 mi WSW 4.6 mph - N/A   Scattered Clouds
10:53 PM 46.0 °F 43.1 °F 39.0 °F 76% 29.80 in 10.0 mi WSW 5.8 mph - N/A   Partly Cloudy
11:53 PM 44.1 °F 40.8 °F 37.9 °F 79% 29.81 in 10.0 mi WSW 5.8 mph - N/A   Partly Cloudy